Location: Byszew
(52.1813°N, 19.2693°E)
Time: 01:54:43
(UTC+00:00)

Envisat - Pass Details

Date: 31 January 2022
Orbit: 764 x 765 km, 98.2° (Epoch: 28 May)

Event Time Altitude Azimuth Distance (km) Brightness Sun altitude
Rises 04:30:17 0° 10° (N) 3,244 6.3 -17.6°
Reaches altitude 10° 04:32:40 10° 5° (N) 2,314 5.5 -17.2°
Maximum altitude 04:37:31 46° 294° (WNW) 1,020 3.2 -16.5°
Drops below altitude 10° 04:42:21 10° 221° (SW) 2,299 5.2 -15.8°
Sets 04:44:42 0° 216° (SW) 3,222 6.0 -15.4°
